Tracking 31027 objects as of 19-Jul-2025
HD Live streaming from Space Station
objects crossing your sky now

OBJECT T

Track OBJECT T now!
10-day predictions


NORAD ID: 51841
Int'l Code: 2022-019T
Perigee: 447.3 km
Apogee: 451.7 km
Inclination: 97.4 °
Period: 93.4 minutes
Semi major axis: 6820 km
RCS: Unknown
Launch date: February 27, 2022
Source: People's Republic of China (PRC)
Launch site: Wenchang Satellite Launch Center (WSC)
Your satellite tracking list
NOAA 16 DEB
Track 1 satellite(s)




NASA's NSSDC Master Catalog

Two Line Element Set (TLE):
1 51841U 22019T   25199.90405789  .00020870  00000-0  50268-3 0  9992
2 51841  97.3928 279.6638 0003235 214.1565 145.9473 15.41283706188105
Source of the keplerian elements: AFSPC